Regional Weather Roundup
Issued by NWS

Home | Current Version | Previous Version | Text Only | Print | Product List | Glossary On
Versions: 1 2 3 4 5 6 7 8 9 10 11 12 13 14 15 16 17 18 19 20 21 22 23 24 25 26 27 28 29 30 31 32 33 34 35 36 37 38 39 40 41 42 43 44 45 46 47 48 49 50
000
ASUS43 KTOP 171708
RWRKS

WEATHER ROUNDUP FOR KANSAS
NATIONAL WEATHER SERVICE GOODLAND KS
1200 PM CDT WED SEP 17 2014

NOTE:  "FAIR" INDICATES FEW OR NO CLOUDS BELOW 12,000 FEET WITH NO
SIGNIFICANT WEATHER AND/OR OBSTRUCTIONS TO VISIBILITY.

KSZ001>006-013>018-027>032-041>047-171800-
NORTHWEST KANSAS

CITY           SKY/WX    TMP DP  RH WIND       PRES   REMARKS
GOODLAND       SUNNY     81  54  39 E8        30.00S
HAYS           SUNNY     73  63  68 NE3       29.93S
HILL CITY      SUNNY     74  61  63 SE5       29.95S
RUSSELL        SUNNY     78  64  61 NE8       29.91S
$$

KSZ061>065-074>080-084>089-171800-
SOUTHWEST KANSAS

CITY           SKY/WX    TMP DP  RH WIND       PRES   REMARKS
DODGE CITY     MOSUNNY   82  61  48 SW6       29.94F
ELKHART          N/A     80  61  52 SW8         N/A
GARDEN CITY    MOSUNNY   78  62  57 S3        29.96S
GREAT BEND     SUNNY     79  64  61 E5        29.92S
LIBERAL        PTSUNNY   82  63  51 SW15      29.98F
PRATT          SUNNY     86  61  42 SW7       29.93S
$$

KSZ066>073-081>083-090>101-171800-
SOUTHEAST KANSAS

CITY           SKY/WX    TMP DP  RH WIND       PRES   REMARKS
CHANUTE        MOSUNNY   84  71  65 SW13      29.90F
COFFEYVILLE    SUNNY     85  72  65 SW13G20   29.90F
HUTCHINSON     SUNNY     84  65  52 VRB3      29.90F
MEDICINE LODGE   N/A     86  63  45 SW7       29.90S
NEWTON         SUNNY     82  66  57 SW5       29.94R
PARSONS        SUNNY     85  72  65 SW13      29.92F
WICHITA INTL   MOSUNNY   88  65  46 SW15      29.89F
WICHITA JABRA  SUNNY     86  65  49 SW10      29.90S
WICHITA MCCONL SUNNY     87  66  49 SW13      29.90F
WINFIELD       SUNNY     88  68  51 SW17      29.91F
$$

KSZ007>012-019>026-033>040-048>060-102>105-171800-
NORTHEAST KANSAS

CITY           SKY/WX    TMP DP  RH WIND       PRES   REMARKS
CONCORDIA      CLOUDY    71  66  84 E8        29.93S
EMPORIA        MOSUNNY   78  69  73 NE8       29.92S
LAWRENCE       CLOUDY    73  67  81 CALM      29.93S HAZE
MANHATTAN      CLOUDY    74  67  78 NE8       29.92S
MARYSVILLE     CLOUDY    72  64  78 E5        29.93S
OLATHE IND     CLOUDY    71  68  90 S3        29.94S
OLATHE EXE     CLOUDY    70  67  90 CALM      29.93S
SALINA         SUNNY     79  66  64 NE8       29.91S
TOPEKA BILLARD CLOUDY    72  68  87 CALM      29.93S
TOPEKA FORBES  CLOUDY    72  67  84 CALM      29.93S
$$


USA.gov is the U.S. government's official web portal to all federal, state and local government web resources and services.